Location: Alto Pass Reservoir
(37.5801°N, 89.3084°W)
Time: 12:47:04
(UTC+00:00)

NEOSSAT - Pass Details

Date: 28 September 2022
Orbit: 767 x 784 km, 98.4° (Epoch: 26 November)

Event Time Altitude Azimuth Distance (km) Brightness Sun altitude
Rises 00:03:39 0° 23° (NNE) 3,278 ? -4.3°
Reaches altitude 10° 00:06:13 10° 33° (NNE) 2,347 ? -4.8°
Maximum altitude 00:10:51 33° 97° (E) 1,299 ? -5.7°
Drops below altitude 10° 00:15:28 10° 161° (SSE) 2,333 ? -6.6°
Sets 00:17:59 0° 170° (S) 3,256 ? -7.1°
